Location: Fenile
(46.0500°N, 9.5500°E)
Time: 07:15:13
(UTC+00:00)

Resurs 01 Rocket - Pass Details

Date: 03 March 2021
Orbit: 635 x 643 km, 98.0° (Epoch: 10 April)

Event Time Altitude Azimuth Distance (km) Brightness Sun altitude
Exits shadow 20:50:15 17° 313° (NW) 1,622 4.3 -37.1°
Drops below altitude 10° 20:51:31 10° 325° (NW) 2,032 4.9 -37.3°
Sets 20:54:00 0° 337° (NNW) 2,947 5.8 -37.6°
